EUTELSAT 113 WEST A     
1 29162U 06020A   19260.53598701 -.00000042  00000-0  00000+0 0  9990
2 29162   0.0232 271.1488 0002976 264.9502 260.0270  1.00271958 48756
THAICOM 5               
1 29163U 06020B   19260.49664664 -.00000126  00000-0  00000+0 0  9991
2 29163   0.0172 160.4366 0005403  55.4246  37.5703  1.00272463 48818
ARIANE 5 DEB [SYLDA]    
1 29164U 06020C   19258.81152343  .00015416  00000-0  18536-2 0  9994
2 29164   6.8370 294.8951 4799852 261.4773  43.3107  5.97870560215610
ARIANE 5 R/B            
1 29165U 06020D   19260.56889095  .00047882  95015-6  81577-3 0  9995
2 29165   7.0064 315.5029 6417576 247.2417  35.4161  3.51170696134938